Location: Newark
(51.2667°N, 3.9167°E)
Time: 23:53:38
(UTC+00:00)

OTV 5 (USA 277) - Visible Passes

Search period start: 26 June 2019 00:00
Search period end: 06 July 2019 00:00
Orbit: 301 x 333 km, 54.5° (Epoch: 26 June)

Date Brightness Start Highest point End Pass type
(mag) Time Alt. Az. Time Alt. Az. Time Alt. Az.
26 Jun ? 00:41:54 10° WNW 00:44:42 73° SSW 00:47:29 10° ESE visible
26 Jun ? 02:17:12 10° WSW 02:18:35 13° SW 02:19:13 12° SSW visible
26 Jun ? 21:47:33 10° W 21:50:16 42° N 21:52:59 10° ENE visible
26 Jun ? 23:22:07 10° WNW 23:24:54 53° NNE 23:27:40 10° E visible
27 Jun ? 00:56:33 10° WNW 00:59:11 36° SW 00:59:32 34° SSW visible
27 Jun ? 22:02:15 10° WNW 22:04:58 40° N 22:07:40 10° ENE visible
27 Jun ? 23:36:41 10° WNW 23:39:31 84° NNE 23:41:14 21° ESE visible
28 Jun ? 01:11:29 10° W 01:12:03 13° W 01:12:03 13° W visible
28 Jun ? 22:16:54 10° WNW 22:19:40 46° N 22:22:23 10° E visible
28 Jun ? 23:51:16 10° WNW 23:54:03 52° SSW 23:54:13 51° SSW visible
29 Jun ? 20:56:59 10° WNW 20:59:42 40° N 21:02:24 10° ENE visible
29 Jun ? 22:31:28 10° WNW 22:34:18 65° NNE 22:36:36 14° E visible
30 Jun ? 00:06:02 10° W 00:07:25 20° WSW 00:07:25 20° WSW visible
30 Jun ? 21:11:40 10° WNW 21:14:23 42° N 21:17:07 10° E visible
30 Jun ? 22:46:02 10° WNW 22:48:52 74° SSW 22:49:56 33° SE visible
01 Jul ? 21:26:16 10° WNW 21:29:04 53° NNE 21:31:50 10° E visible
01 Jul ? 23:00:42 10° WNW 23:03:21 37° SSW 23:03:23 37° SSW visible
02 Jul ? 21:40:50 10° WNW 21:43:40 83° NNE 21:46:04 13° ESE visible
02 Jul ? 23:15:38 10° W 23:16:54 17° WSW 23:16:54 17° WSW visible
03 Jul ? 21:55:26 10° WNW 21:58:12 53° SSW 21:59:39 24° SE visible
04 Jul ? 22:10:11 10° W 22:12:38 26° SW 22:13:16 24° SSW visible
05 Jul ? 20:50:12 10° WNW 20:53:01 74° SSW 20:55:50 10° ESE visible
05 Jul ? 22:25:28 10° WSW 22:26:56 13° SW 22:26:58 13° SW visible
